EDT,Max TemperatureF,Mean TemperatureF,Min TemperatureF,Max Dew PointF,MeanDew PointF,Min DewpointF,Max Humidity, Mean Humidity, Min Humidity, Max Sea Level PressureIn, Mean Sea Level PressureIn, Min Sea Level PressureIn, Max VisibilityMiles, Mean VisibilityMiles, Min VisibilityMiles, Max Wind SpeedMPH, Mean Wind SpeedMPH, Max Gust SpeedMPH,PrecipitationIn, CloudCover, Events, WindDirDegrees
2013-8-1,79,70,61,72,66,63,100,85,69,30.09,30.03,29.99,10,7,0,9,3,,0.35,5,Fog-Rain-Thunderstorm,287
2013-8-2,79,69,58,66,63,59,100,79,58,30.14,30.10,30.05,10,8,1,7,2,,0.00,1,,275
2013-8-3,80,69,58,70,66,61,100,84,67,30.12,30.09,30.05,10,9,5,7,1,,T,3,Rain,268
2013-8-4,77,69,60,70,63,59,100,78,56,30.18,30.10,30.04,10,9,2,10,4,16,T,4,Rain,314
2013-8-5,76,67,58,66,63,59,100,82,64,30.20,30.14,30.09,10,10,4,8,4,,0.00,5,,108
2013-8-6,79,71,62,72,68,64,100,84,67,30.13,30.09,30.06,10,10,7,7,3,,0.02,6,Rain,206
2013-8-7,77,72,67,72,70,68,100,90,79,30.17,30.14,30.12,10,10,7,10,4,16,T,8,,183
2013-8-8,79,73,67,73,71,68,100,87,74,30.15,30.13,30.10,10,8,2,6,2,,0.12,6,Rain-Thunderstorm,170
2013-8-9,82,74,66,75,72,68,100,85,70,30.14,30.11,30.07,10,7,1,23,4,28,0.02,3,Thunderstorm,255
2013-8-10,83,75,66,73,71,68,100,83,65,30.20,30.17,30.14,10,8,2,10,3,17,0.01,2,Rain-Thunderstorm,279
2013-8-11,82,74,65,73,71,66,100,83,65,30.23,30.19,30.13,10,7,2,7,2,17,0.05,3,Rain,267
2013-8-12,83,74,64,72,69,66,100,79,58,30.18,30.13,30.07,10,8,2,8,4,,0.09,2,Rain-Thunderstorm,276
2013-8-13,77,70,63,73,68,64,100,88,76,30.07,29.98,29.92,10,9,3,9,3,17,0.18,5,Rain,282
2013-8-14,72,61,50,64,56,52,100,75,49,30.21,30.09,30.00,10,10,5,10,4,,0.00,1,,320
2013-8-15,72,60,47,57,54,48,100,81,61,30.25,30.21,30.16,10,10,5,8,3,,0.00,3,,106
2013-8-16,73,60,47,61,56,48,100,83,66,30.27,30.22,30.19,10,8,0,9,3,,0.00,1,Fog,102
2013-8-17,68,59,50,63,58,52,100,88,76,30.31,30.27,30.25,10,9,4,12,5,16,0.39,5,Rain,73
2013-8-18,71,65,58,66,64,61,100,92,84,30.31,30.27,30.23,10,9,4,8,4,,0.18,8,Rain,79
2013-8-19,75,68,61,72,67,63,100,90,79,30.29,30.22,30.18,10,9,2,7,1,,0.17,6,Rain,157
2013-8-20,81,71,61,72,68,64,100,85,69,30.29,30.25,30.20,10,6,0,9,2,,0.00,6,Fog,113
2013-8-21,79,71,62,72,68,64,100,87,74,30.32,30.27,30.21,10,8,2,6,1,,0.10,2,Rain-Thunderstorm,221
2013-8-22,82,71,59,72,67,63,100,83,65,30.25,30.20,30.12,10,7,0,9,3,18,0.00,4,Fog,288
2013-8-23,81,70,59,72,67,63,100,84,67,30.23,30.13,30.07,10,7,1,10,4,21,T,2,Rain,322
2013-8-24,78,65,52,63,59,54,100,77,54,30.41,30.33,30.23,10,9,1,12,3,,0.00,0,,92
2013-8-25,76,64,51,63,57,54,100,75,50,30.49,30.43,30.38,10,9,2,8,2,,0.00,1,,118
2013-8-26,79,65,51,66,60,54,100,77,54,30.42,30.32,30.21,10,8,0,6,1,,0.00,2,Fog,283
2013-8-27,81,71,60,72,68,63,100,85,69,30.21,30.15,30.09,10,7,3,10,5,16,0.00,2,,274
2013-8-28,81,73,65,73,70,66,100,83,65,30.13,30.06,29.99,10,7,2,10,3,16,T,4,Thunderstorm,259
2013-8-29,82,76,69,73,72,70,100,83,65,30.14,30.05,29.99,10,10,2,10,5,18,0.06,7,Rain-Thunderstorm,9
2013-8-30,81,71,61,72,68,63,100,83,65,30.16,30.10,30.03,10,7,0,7,2,,0.00,5,Fog,199
2013-8-31,83,73,62,73,68,64,100,81,61,30.06,30.02,29.96,10,7,1,12,2,21,0.22,2,Rain-Thunderstorm,265